Home   Weather   Downey   Past weeks

Flag for USA Past Weather in Downey, California, USA — Yesterday and Last 2 Weeks

Now
61 °F

Clear.


Feels Like: 61 °F
Forecast: 60 / 75 °F
Wind: No wind

Location: Long Beach Airport

Current Time: Apr 24, 2017 at 12:28:52 am

Latest Report: Apr 23, 2017 at 11:53 pm


Visibility: 9 mi

Pressure: 29.88 "Hg

Humidity: 81%

Dew Point: 55 °F

Location of DowneyLocation

Past Weather in Downey — Graph

°F

Downey Temperature Yesterday

Maximum temperature yesterday: 74 °F (at 11:53 am)
Minimum temperature yesterday: 61 °F (at 5:53 am)
Average temperature yesterday: 66 °F

High & Low Weather Summary for the Past Weeks

 TemperatureHumidityPressure
High85 °F (Apr 21, 3:53 pm)90% (Apr 20, 6:18 am)30.13 "Hg (Apr 20, 6:18 am)
Low51 °F (Apr 9, 6:53 am)18% (Apr 15, 4:53 pm)29.81 "Hg (Apr 22, 3:53 pm)
Average64 °F59%29.99 "Hg
* Reported Apr 8 10:53 pm — Apr 23 10:53 pm, Downey, Weather by CustomWeather, © 2017

Note: Actual official high and low records may vary slightly from our data, if they occured in-between our weather recording intervals... More about our weather records

Advertising

Downey Weather History for the Previous 24 Hours

Scroll right to see more
 ConditionsComfort  
Time TempWeatherWind HumidityBarometerVisibility
10:53 pm
Sun, Apr 23
61 °FClear.3 mph78%29.88 "Hg9 mi
9:53 pm62 °FClear.6 mph73%29.86 "Hg10 mi
8:53 pm63 °FClear.6 mph75%29.85 "Hg10 mi
7:53 pm66 °FClear.5 mph54%29.83 "Hg10 mi
6:53 pm68 °FSunny.7 mph51%29.83 "Hg10 mi
5:53 pm72 °FSunny.9 mph44%29.82 "Hg10 mi
4:53 pm73 °FSunny.12 mph50%29.82 "Hg10 mi
3:53 pm73 °FSunny.7 mph48%29.83 "Hg10 mi
2:53 pm71 °FSunny.10 mph57%29.85 "Hg10 mi
1:53 pm70 °FSunny.12 mph59%29.85 "Hg10 mi
12:53 pm71 °FSunny.10 mph57%29.86 "Hg10 mi
11:53 am74 °FSunny.9 mph50%29.87 "Hg10 mi
10:53 am72 °FSunny.7 mph55%29.88 "Hg10 mi
9:53 am68 °FPassing clouds.3 mph65%29.89 "Hg10 mi
9:06 am65 °FPassing clouds.5 mph73%29.87 "Hg9 mi
8:53 am64 °FPartly sunny.6 mph75%29.87 "Hg9 mi
8:00 am63 °FPartly sunny.5 mph75%29.88 "Hg10 mi
6:53 am61 °FSunny.5 mph78%29.85 "Hg10 mi
5:53 am61 °FClear.3 mph75%29.83 "Hg10 mi
4:53 am62 °FClear.No wind73%29.83 "Hg10 mi
3:53 am62 °FClear.3 mph70%29.83 "Hg10 mi
2:53 am62 °FClear.No wind70%29.83 "Hg10 mi
1:53 am63 °FClear.5 mph63%29.84 "Hg10 mi
12:53 am62 °FClear.3 mph75%29.86 "Hg10 mi
Weather by CustomWeather, © 2017

See weather overviewHow to use our weather pages